{"data":{"norad_id":66835,"intl_designator":"2025-280Q","name":"STARLINK-35890","alt_names":[],"object_type":"PAYLOAD","status":"ACTIVE","operator":null,"country":"US","launch_date":"2025-12-02","launch_site_code":"AFWTR","launch_vehicle":null,"mission":null,"orbit_class":"UNKNOWN","rcs_meters":null,"size_class":null,"mass_kg":null,"dimensions":null,"purposes":["comms"],"wikipedia_slug":null,"has_3d_model":false,"image_url":null,"decayed_at":null,"tle_current":{"epoch":"2026-09-20T05:10:12.643104Z","epoch_age_seconds":109108,"freshness":"FRESH","line1":"1 66835U 25280Q   26263.21542411  .00002423  00000+0  21076-3 0  9993","line2":"2 66835  70.0008 203.9990 0002784 272.4097  87.6743 14.98335875 45219","mean_motion":14.98335875,"eccentricity":0.0002784,"inclination_deg":70.0008,"raan_deg":203.999,"arg_perigee_deg":272.4097,"mean_anomaly_deg":87.6743,"bstar":0.00021076,"rev_number":4521,"period_min":96.106622288544,"perigee_km":570.10279440801,"apogee_km":573.97265169381,"semimajor_km":6950.1747230509,"source":"CELESTRAK","updated_at":"2026-09-21T09:00:36.022387Z"}}}